NSS-10

Last updated on Tue Dec 16 2025 00:02:48 GMT+0000 (Coordinated Universal Time)

1 28526U 05003A 25349.12240470 -.00000235 00000+0 00000+0 0 9993 2 28526 5.9916 72.6947 0002750 194.1884 183.7577 1.00271828 51316
UTC large
Height (km)
Speed (km/s)
/
Latitude / Longitude
Inclination (degrees)
Orbital Period (minutes)
Azimuth
Elevation
Range (km)
Doppler Factor

Next 0 passes for location: London (51.5072 / 0.1276)

Sorry there are no passes over London.